Location: Brantford
(43.1330°N, 80.2670°W)
Time: 13:24:46
(UTC-04:00)

ISS - Visible Passes

Search period start: 21 October 2019 00:00
Search period end: 31 October 2019 00:00
Orbit: 411 x 421 km, 51.6° (Epoch: 21 October)

Date Brightness Start Highest point End Pass type
(mag) Time Alt. Az. Time Alt. Az. Time Alt. Az.
22 Oct -0.7 07:01:21 10° S 07:03:25 15° SE 07:05:29 10° E visible
24 Oct -2.4 06:59:32 10° SSW 07:02:41 39° SE 07:05:52 10° ENE visible
25 Oct -1.5 06:11:28 10° S 06:14:13 24° SE 06:16:58 10° E visible
26 Oct -0.9 05:25:34 14° SE 05:25:47 14° SE 05:27:39 10° E visible
26 Oct -3.8 06:58:45 10° WSW 07:02:07 78° NNW 07:05:29 10° NE visible
27 Oct -3.4 06:12:29 39° SSW 06:13:31 63° SE 06:16:51 10° ENE visible
28 Oct -1.5 05:26:18 25° E 05:26:18 25° E 05:28:05 10° ENE visible
28 Oct -3.0 06:59:12 15° W 07:01:41 37° NNW 07:04:51 10° NE visible
29 Oct -3.6 06:12:53 53° NW 06:12:57 53° NNW 06:16:16 10° NE visible
30 Oct -1.2 05:26:26 21° NE 05:26:26 21° NE 05:27:39 10° ENE visible
30 Oct -2.2 06:59:20 14° WNW 07:01:22 23° NNW 07:04:10 10° NE visible
